Location: Vinland
(47.7731°N, 122.6974°W)
Time: 19:54:47
(UTC+00:00)

Vanguard 2 - Pass Details

Date: 21 April 2024
Orbit: 553 x 2914 km, 32.9° (Epoch: 22 May)

Event Time Altitude Azimuth Distance (km) Brightness Sun altitude
Exits shadow 09:32:24 34° 178° (S) 3,835 10.5 -27.4°
Maximum altitude 09:36:03 37° 155° (SSE) 3,807 10.6 -27.1°
Drops below altitude 10° 09:51:12 10° 98° (E) 5,679 12.1 -26.0°
Sets 09:55:53 0° 91° (E) 6,569 12.6 -25.6°
